TimeEDT,TemperatureF,Dew PointF,Humidity,Sea Level PressureIn,VisibilityMPH,Wind Direction,Wind SpeedMPH,Gust SpeedMPH,PrecipitationIn,Events,Conditions,WindDirDegrees,DateUTC
12:23 AM,60.8,60.8,100,30.02,7.0,Calm,Calm,-,0.00,,Overcast,0,2013-10-06 04:23:00
12:54 AM,61.0,60.1,97,30.04,6.0,Calm,Calm,-,0.00,,Mostly Cloudy,0,2013-10-06 04:54:00
1:07 AM,60.8,60.8,100,30.02,7.0,Calm,Calm,-,N/A,,Mostly Cloudy,0,2013-10-06 05:07:00
1:31 AM,60.8,60.8,100,30.01,5.0,Calm,Calm,-,N/A,,Overcast,0,2013-10-06 05:31:00
1:54 AM,61.0,60.1,97,30.03,5.0,NW,5.8,-,N/A,,Overcast,310,2013-10-06 05:54:00
2:23 AM,60.8,60.8,100,30.00,2.5,Calm,Calm,-,0.01,Rain,Light Rain,0,2013-10-06 06:23:00
2:33 AM,60.8,59.0,94,29.99,3.0,Calm,Calm,-,0.01,Rain,Light Rain,0,2013-10-06 06:33:00
2:54 AM,61.0,60.1,97,30.00,5.0,Calm,Calm,-,0.01,,Overcast,0,2013-10-06 06:54:00
3:32 AM,60.8,60.8,100,29.98,2.5,NNW,3.5,-,0.02,Rain,Light Rain,330,2013-10-06 07:32:00
3:36 AM,60.8,60.8,100,29.98,3.0,WNW,4.6,-,0.02,,Overcast,300,2013-10-06 07:36:00
3:42 AM,60.8,59.0,94,29.99,3.0,WNW,5.8,-,0.02,,Overcast,300,2013-10-06 07:42:00
3:54 AM,60.1,59.0,96,30.01,4.0,NW,6.9,-,0.02,,Overcast,310,2013-10-06 07:54:00
4:44 AM,60.8,59.0,94,29.97,8.0,Calm,Calm,-,N/A,,Overcast,0,2013-10-06 08:44:00
4:54 AM,60.1,59.0,96,29.99,9.0,Calm,Calm,-,N/A,,Overcast,0,2013-10-06 08:54:00
5:15 AM,60.8,59.0,94,29.98,7.0,ESE,3.5,-,N/A,,Overcast,120,2013-10-06 09:15:00
5:47 AM,60.8,59.0,94,29.97,1.8,South,3.5,-,N/A,,Overcast,170,2013-10-06 09:47:00
5:54 AM,60.1,59.0,96,29.99,1.5,South,3.5,-,N/A,,Overcast,170,2013-10-06 09:54:00
6:02 AM,60.8,60.8,100,29.97,3.0,South,4.6,-,N/A,,Overcast,190,2013-10-06 10:02:00
6:14 AM,60.8,60.8,100,29.96,7.0,South,3.5,-,N/A,,Overcast,170,2013-10-06 10:14:00
6:54 AM,62.1,61.0,96,29.99,10.0,South,4.6,-,N/A,,Overcast,170,2013-10-06 10:54:00
7:54 AM,64.9,63.0,93,29.98,10.0,ESE,8.1,-,N/A,,Overcast,120,2013-10-06 11:54:00
8:54 AM,66.9,64.9,93,29.99,9.0,ESE,4.6,-,0.00,,Overcast,120,2013-10-06 12:54:00
9:54 AM,69.1,66.0,90,29.98,10.0,SE,8.1,-,0.03,,Overcast,130,2013-10-06 13:54:00
10:54 AM,71.1,66.9,87,29.96,10.0,ESE,4.6,-,N/A,,Overcast,110,2013-10-06 14:54:00
11:54 AM,73.0,68.0,84,29.94,10.0,SE,3.5,-,N/A,,Mostly Cloudy,130,2013-10-06 15:54:00
12:54 PM,79.0,69.1,72,29.91,10.0,SE,10.4,-,N/A,,Clear,140,2013-10-06 16:54:00
1:54 PM,82.9,66.9,58,29.88,10.0,South,6.9,-,N/A,,Partly Cloudy,170,2013-10-06 17:54:00
2:54 PM,84.0,64.0,51,29.86,10.0,South,17.3,21.9,N/A,,Clear,170,2013-10-06 18:54:00
3:54 PM,84.0,64.0,51,29.84,10.0,SSE,5.8,-,N/A,,Clear,160,2013-10-06 19:54:00
4:54 PM,84.9,64.0,49,29.83,10.0,South,8.1,-,N/A,,Clear,180,2013-10-06 20:54:00
5:54 PM,79.0,66.9,66,29.83,10.0,SSE,5.8,-,0.01,,Partly Cloudy,160,2013-10-06 21:54:00
6:54 PM,73.0,69.1,87,29.83,10.0,South,3.5,-,N/A,,Partly Cloudy,180,2013-10-06 22:54:00
7:54 PM,73.0,64.9,76,29.83,10.0,SSE,6.9,-,N/A,,Partly Cloudy,160,2013-10-06 23:54:00
8:54 PM,75.0,64.9,71,29.83,10.0,SSE,10.4,-,N/A,,Clear,150,2013-10-07 00:54:00
9:54 PM,75.0,64.9,71,29.82,10.0,SSE,10.4,19.6,N/A,,Clear,150,2013-10-07 01:54:00
10:54 PM,75.0,64.0,69,29.81,10.0,SSE,12.7,24.2,N/A,,Clear,150,2013-10-07 02:54:00
11:54 PM,75.0,64.0,69,29.80,10.0,SSE,15.0,21.9,N/A,,Clear,160,2013-10-07 03:54:00